Fábio Neves

Recruteur en chef - Parana
3 Déc 2028
Dimanche
Processus

Personnalité

Adaptabilité (10) Ambition (1) Controverse (6) Loyauté (17) Pression (1) Professionnalisme (3) Sportivité (9) Tempérament (19)

Profil

Style d'entraînement Démocratique
Diplôme National A
Détermination 3
Gestion des joueurs 4
Motivation 5
Discipline 11
Satisfaction professionnelle
100%
Fatigue
0%
Rôle Recruteur en chef
Salaire 62.1K p/s
Contrat 14.03.2029

Performance

Comportement Bon
Efficacité de l'entraînement
33%
Développement des joueurs
15%
Prévention des blessures
55%
Mise en place tactique
35%

Événements récents

A évalué un joueur maintenant
A participé à une réunion de recrutement maintenant
A recommandé une cible de transfert maintenant
A évalué un joueur maintenant
A évalué un joueur maintenant
A évalué un joueur 7j
A évalué un joueur 7j
A évalué un joueur 7j

Suivi en cours

231
Joueur Club Statut Capacité Confiance Observé Dernière observation Dernier vote
Patricio Moyano Defensores Actif 122 / 127 40% 1 02.12.2028 -
Enzo González Defensores Négociation 116 / 119 40% 1 02.12.2028 -
Renzo Bacchia Racing Actif 116 / 134 40% 3 30.11.2028 -
Alexander Sandahl Spartak Myjava Actif 109 / 89 40% 1 30.11.2028 -
Juan Moreno La Luz Actif 115 / 111 40% 2 28.11.2028 -
Yeferson Cordova Llaneros Actif 110 / 101 40% 2 28.11.2028 -
Mohammed Faisal Wikki Tourists Actif 102 / 71 40% 1 27.11.2028 -
Federico Losas Chacarita Juniors Actif 127 / 115 40% 1 27.11.2028 -
Luis Ingolotti Atlético Tucumán Actif 121 / 115 40% 2 26.11.2028 -
Vincent Edafe Warri Wolves Actif 120 / 115 40% 1 26.11.2028 -
Ifeanyi Emmanuel Niger Tornadoes Actif 116 / 118 40% 2 24.11.2028 -
Anthony Cletus Bendel Insurance Actif 94 / 118 40% 1 23.11.2028 -
Esteban Glellel Quilmes Actif 120 / 106 40% 4 21.11.2028 -
Antonio Carrera Falkenberg Actif 106 / 116 40% 1 21.11.2028 -
Juan Pablo Rial San Telmo Actif 118 / 105 40% 3 19.11.2028 -
Mustapha Lawal Shooting Stars Actif 97 / 98 40% 2 19.11.2028 -
Facundo Vila Estudiantes Actif 110 / 123 40% 1 18.11.2028 -
Fabrizio Correa Juventud Actif 130 / 126 40% 3 17.11.2028 -
John Amah Plateau United Actif 120 / 120 40% 1 13.11.2028 -
Lautaro Herrera Estudiantes Actif 105 / 105 40% 1 12.11.2028 -
Biola Sabitu Remo Stars Actif 118 / 89 40% 1 12.11.2028 -
Kevin Chacón Alianza Petrolera Actif 101 / 98 40% 1 11.11.2028 -
César Carrizo Mineros de Guayana Actif 104 / 112 40% 1 10.11.2028 -
Ali Ishaku Abia Warriors Actif 115 / 123 40% 1 09.11.2028 -
Lautaro Maldonado Instituto Actif 120 / 106 40% 1 09.11.2028 -
Michael Atata Ikorodu City Actif 114 / 93 40% 1 07.11.2028 -
Miguel Silva Carabobo Actif 104 / 118 40% 1 06.11.2028 -
César Magallan Estudiantes de Merida Actif 108 / 115 40% 1 06.09.2028 -
Tomás Pozzo Godoy Cruz Actif 130 / 136 40% 1 06.09.2028 -
Daniel Barrea Godoy Cruz Actif 133 / 112 40% 1 04.09.2028 -
Fabricio Criciuma Actif 85 / 86 62% 1 10.07.2028 Approuver
Jordan Storey Crewe Alexandra Actif 124 / 117 40% 1 03.07.2028 -
Reece Oxford Shrewsbury Town Actif 124 / 130 40% 1 03.07.2028 -
Filip Lissah Shrewsbury Town Actif 116 / 122 40% 1 26.06.2028 -
Pol Valentín Cambridge United Actif 125 / 127 40% 2 31.05.2028 -
Igor Tyjon Barrow AFC Actif 112 / 115 40% 1 31.05.2028 -
Lewie Coyle Accrington Stanley Actif 122 / 118 40% 1 30.05.2028 -
Jayden Sweeney Grimsby Town Actif 92 / 95 40% 1 30.05.2028 -
Anílson Pacos de Ferreira Actif 105 / 116 40% 2 29.05.2028 -
Denzel Hall Rotherham United Actif 99 / 109 40% 3 29.05.2028 -
Conor Shaughnessy Fleetwood Town Actif 118 / 104 40% 1 28.05.2028 -
Andy Rinomhota Reading Actif 133 / 138 40% 1 28.05.2028 -
Ethan Erhahon Cheltenham Town Actif 112 / 125 40% 1 26.05.2028 -
Ryan Wintle Milton Keynes Dons Actif 133 / 124 40% 1 22.05.2028 -
Matthew Craig Newport County Actif 106 / 132 40% 2 19.05.2028 -
Márk Kosznovszky Crewe Alexandra Actif 123 / 141 40% 1 16.05.2028 -
Liam Bennett Cambridge United Actif 113 / 89 40% 1 15.05.2028 -
Zé Carlos Gil Vicente Actif 112 / 112 40% 1 15.05.2028 -
Gonçalo Oliveira Benfica Actif 113 / 129 40% 3 14.05.2028 -
Martim Cunha Porto Actif 105 / 113 40% 1 14.05.2028 -
Marc Baró Leiria Actif 119 / 131 40% 4 13.05.2028 -
Arthur Read Colchester United Actif 104 / 126 40% 1 12.05.2028 -
Darnell Furlong Leyton Orient Actif 125 / 116 40% 2 09.05.2028 -
Matthew Litherland Harrogate Town Actif 114 / 140 40% 1 07.05.2028 -
Saxon Earley Accrington Stanley Actif 113 / 92 40% 1 07.05.2028 -
André Oliveira Porto Actif 115 / 132 40% 1 05.05.2028 -
Dean Campbell Northampton Town Actif 122 / 101 40% 1 04.05.2028 -
Connor Ogilvie Grimsby Town Actif 105 / 118 40% 1 04.05.2028 -
Tom Pearce Chesterfield Actif 113 / 112 40% 1 03.05.2028 -
Kyle John Port Vale Actif 105 / 119 40% 3 22.04.2028 -
James Dornelly Peterborough United Actif 110 / 92 40% 1 21.04.2028 -
Lloyd Jones Charlton Athletic Actif 146 / 110 40% 1 20.04.2028 -
Samuel Justo Sporting CP Actif 114 / 132 40% 3 15.04.2028 -
Ben Cabango Gillingham Actif 124 / 144 40% 2 14.04.2028 -
Odel Offiah Shrewsbury Town Actif 120 / 128 40% 3 08.04.2028 -
Kane Wilson Milton Keynes Dons Actif 109 / 118 40% 1 03.04.2028 -
Di'Shon Bernard Sheffield Wednesday Actif 141 / 108 40% 1 29.03.2028 -
Daniel Banjaqui Benfica Actif 136 / 123 40% 2 28.03.2028 -
Bernardo Lima Porto Actif 115 / 104 40% 1 28.03.2028 -
Federico Bicoro Lillestrom Actif 107 / 118 40% 2 27.03.2028 -
Marcus McGuane Huddersfield Town Actif 117 / 132 40% 1 26.03.2028 -
Tomás Pérez Porto Actif 116 / 136 40% 3 25.03.2028 -
Kaíque Rocha Casa Pia Actif 114 / 123 40% 3 19.03.2028 -
Tobías Ostchega America Mineiro Actif 125 / 125 40% 2 18.03.2028 -
Willian Machado Mirassol Actif 128 / 120 40% 4 16.03.2028 -
Atsuki Ito Bolton Wanderers Actif 127 / 109 40% 1 15.03.2028 -
Gonçalo Braga Lusitânia Lourosa Actif 99 / 84 40% 3 14.03.2028 -
Felipe Amaral America Mineiro Actif 109 / 106 40% 1 12.03.2028 -
Ewerthon Atletico Goianiense Actif 98 / 122 40% 1 10.03.2028 -
Jayson Molumby West Bromwich Albion Actif 132 / 134 40% 1 07.03.2028 -
Sydie Peck Swindon Town Actif 127 / 155 40% 1 06.03.2028 -
Pablo Maia Atletico Goianiense Actif 142 / 128 40% 1 03.03.2028 -
Dieguinho Ceará Actif 128 / 115 40% 3 01.03.2028 -
Paulo Vitor Akron Actif 123 / 114 40% 2 01.03.2028 -
Adriano Mina Atletico Goianiense Actif 118 / 121 40% 2 29.02.2028 -
Japhet Sery Larsen Philadelphia Union Actif 133 / 136 40% 2 29.02.2028 -
Sergi Palencia Los Angeles Football Club Actif 118 / 121 40% 1 25.02.2028 -
Facundo Mura Inter Miami CF Actif 119 / 131 40% 1 23.02.2028 -
Marcelo Saracchi Houston Dynamo Actif 139 / 137 40% 1 21.02.2028 -
Baralhas Vitória Actif 135 / 127 40% 1 17.02.2028 -
Tomás Jacob Atlanta United FC Actif 131 / 138 40% 1 16.02.2028 -
Nicolás Romero Minnesota United FC Actif 145 / 135 40% 1 16.02.2028 -
Nathan America Mineiro Actif 125 / 116 40% 2 15.02.2028 -
Caíque Gonçalves Vitória Actif 128 / 135 40% 5 11.02.2028 -
Timothy Castagne Stoke City Actif 156 / 138 40% 2 11.02.2028 -
Nicolás Garayalde Liverpool Montevideo Actif 121 / 114 40% 1 10.02.2028 -
Edgar Elizalde Defensor Sporting Actif 121 / 121 40% 1 10.02.2028 -
Éder Ceará Actif 111 / 112 40% 1 09.02.2028 -
Ben Sheaf Wrexham Actif 140 / 133 40% 1 08.02.2028 -
Cristian Sención Paysandu Actif 101 / 112 40% 1 08.02.2028 -
Rodrigues Mirassol Actif 134 / 117 40% 2 05.02.2028 -
David Ayala Inter Miami CF Actif 127 / 120 40% 1 02.02.2028 -
Walter Juárez Güemes Actif 110 / 100 40% 1 31.01.2028 -
Franco Díaz Temperley Actif 115 / 127 40% 1 31.01.2028 -
Ignacio Vázquez Platense Actif 126 / 130 40% 2 30.01.2028 -
Emiliano Álvarez Progreso Actif 126 / 134 40% 1 30.01.2028 -
Andrés Herrera Columbus Crew Actif 129 / 116 40% 2 26.01.2028 -
Facundo Nadalín San Martín SJ Actif 115 / 114 40% 1 24.01.2028 -
Bruno Leyes Godoy Cruz Actif 138 / 129 40% 2 23.01.2028 -
Marcelo Hermes Criciuma Actif 111 / 102 40% 3 21.01.2028 -
Gabriel Díaz Patronato Actif 117 / 114 40% 1 19.01.2028 -
Kai Wagner Philadelphia Union Actif 132 / 124 40% 2 16.01.2028 -
Yeferson Rodallega Envigado Actif 110 / 130 40% 1 12.01.2028 -
Brian Mieres Mitre Actif 111 / 121 40% 1 10.01.2028 -
Malte Amundsen Columbus Crew Actif 130 / 113 40% 1 09.01.2028 -
Alex Luna Instituto Actif 125 / 131 40% 1 24.12.2027 -
Joel Ezra Enyimba Actif 85 / 87 40% 1 30.11.2027 -
Adam Phillips Northampton Town Actif 131 / 112 40% 2 06.07.2027 -
Xavier Amaechi Plymouth Argyle Actif 103 / 126 40% 1 21.06.2027 -
Declan Frith Peterborough United Actif 101 / 99 40% 1 14.06.2027 -
Marcus Ifill Crewe Alexandra Actif 93 / 101 40% 1 14.06.2027 -
Aaron Drinan Swindon Town Actif 101 / 87 40% 1 08.06.2027 -
Brandon Hanlan Doncaster Rovers Actif 114 / 108 40% 1 08.06.2027 -
Xavi Sintes Estoril Praia Actif 113 / 129 40% 1 29.12.2026 -
Lorougnon Gohi Académico de Viseu Actif 109 / 126 40% 1 21.12.2026 -
Jordan Holsgrove Estoril Praia Actif 129 / 119 40% 1 21.12.2026 -
Orlando Neto São Paulo Actif 93 / 108 51% 1 14.12.2026 -
Dany Jean Torreense Actif 122 / 99 40% 2 03.12.2026 -
Mohammed Bouldini Académico de Viseu Actif 106 / 97 40% 2 30.11.2026 -
Martín Tejón Maritimo Actif 128 / 105 40% 2 30.11.2026 -
Aleksandar Busnić Mlada Boleslav Actif 131 / 122 40% 2 29.11.2026 -
Zé Leite Moreirense Actif 102 / 115 40% 4 29.11.2026 -
Gabriel Silva Braga Actif 113 / 145 40% 4 28.11.2026 -
Gianluca Prestianni Benfica Actif 148 / 134 40% 2 28.11.2026 -
Lucas Duarte Felgueiras Actif 119 / 84 40% 1 28.11.2026 -
Olívio Tomé Benfica Actif 106 / 128 40% 1 28.11.2026 -
Juan Muñoz Leiria Actif 142 / 113 40% 3 27.11.2026 -
Figueiredo Alverca Actif 140 / 144 40% 1 24.11.2026 -
Luccas Paraízo Leixões Actif 117 / 89 40% 1 24.11.2026 -
Mourad Tijuana Actif 118 / 105 40% 2 22.11.2026 -
André Clovis Académico de Viseu Actif 136 / 133 40% 2 21.11.2026 -
Sam Greenwood Bristol City Actif 110 / 112 40% 1 21.11.2026 -
Ola Brynhildsen Rapid Wien Actif 118 / 106 40% 1 17.11.2026 -
Pablo Fernández Leiria Actif 114 / 99 40% 4 16.11.2026 -
Jackson Muleka Konyaspor Actif 117 / 128 40% 1 16.11.2026 -
Kevin Velasco Puebla Actif 108 / 132 40% 1 16.11.2026 -
Matías Lacava Vizela Actif 99 / 103 40% 2 15.11.2026 -
Renato Kayser Vitória Actif 111 / 126 40% 1 14.11.2026 -
Héctor Hernández Gil Vicente Actif 111 / 114 40% 3 13.11.2026 -
Lee Hyun-Ju Arouca Actif 110 / 127 40% 2 12.11.2026 -
Valery Académico de Viseu Actif 135 / 130 40% 1 10.11.2026 -
Lucas Di Yorio Santos Laguna Actif 126 / 120 40% 1 10.11.2026 -
Juninho Pumas UNAM Actif 132 / 141 40% 1 10.11.2026 -
Vinícius Lopes Santa Clara Actif 119 / 140 40% 4 09.11.2026 -
Rodrigo Pinheiro Famalicao Actif 143 / 121 40% 2 08.11.2026 -
Reko Leiria Actif 133 / 134 40% 1 08.11.2026 -
Soufiane Messeguem Académico de Viseu Actif 119 / 110 40% 1 06.11.2026 -
Maxime Dominguez Maritimo Actif 122 / 116 40% 1 06.11.2026 -
Morgan Guilavogui Real Salt Lake Actif 122 / 141 40% 1 06.11.2026 -
Tamble Monteiro Rio Ave Actif 104 / 127 40% 2 05.11.2026 -
Luís Esteves Atlas Actif 130 / 134 40% 1 05.11.2026 -
Pedro Pacheco Santa Clara Actif 97 / 104 40% 1 04.11.2026 -
Arnau Casas Leixões Actif 104 / 115 40% 1 02.11.2026 -
Liziero Nacional Actif 135 / 110 40% 1 31.10.2026 -
Alejandro Piedrahita Deportivo Pereira Actif 130 / 125 40% 1 29.10.2026 -
Matheuzinho Vitória Actif 120 / 124 40% 1 29.10.2026 -
Sorriso Famalicao Actif 147 / 121 40% 2 27.10.2026 -
Francisco Moura Porto Actif 127 / 142 40% 3 24.10.2026 -
Xeka Estoril Praia Actif 143 / 117 40% 2 24.10.2026 -
Wessam Abou Ali Columbus Crew Actif 120 / 134 40% 1 24.10.2026 -
Pedro Lima Sporting CP Actif 125 / 110 40% 1 24.10.2026 -
João Queirós Oliveirense Actif 124 / 119 40% 1 24.10.2026 -
Santiago Rodríguez Gimnasia y Esgrima Actif 120 / 113 40% 1 19.10.2026 -
Matheus Dias Nacional Actif 108 / 103 40% 1 19.10.2026 -
Cheikh Sabaly Vancouver Whitecaps Actif 118 / 119 40% 2 17.10.2026 -
Guilherme Neiva AVS Actif 98 / 93 40% 2 16.10.2026 -
Myrto Uzuni Austin FC Actif 144 / 127 40% 1 14.10.2026 -
Korede Osundina Casa Pia Actif 107 / 103 40% 1 13.10.2026 -
Tomás Fernández Aldosivi Actif 114 / 125 40% 1 12.10.2026 -
Facundo Cáseres Gil Vicente Actif 113 / 111 40% 1 12.10.2026 -
Alexey Miranchuk Atlanta United FC Actif 153 / 142 40% 1 12.10.2026 -
Angel Bastunov Vizela Actif 95 / 117 40% 4 09.10.2026 -
Henrique Araújo Casa Pia Actif 121 / 126 40% 2 08.10.2026 -
Mohamed-Ali Cho Hull City Actif 132 / 141 40% 2 07.10.2026 -
Ross Stewart Southampton Actif 133 / 141 40% 1 06.10.2026 -
Martín Ojeda Orlando City Actif 140 / 128 40% 3 05.10.2026 -
Álex Arce Independiente Rivadavia Actif 133 / 113 40% 1 04.10.2026 -
Iano Simão Penafiel Actif 93 / 96 40% 1 03.10.2026 -
MT Santa Clara Actif 133 / 115 40% 1 03.10.2026 -
Santi García Gil Vicente Actif 118 / 116 40% 1 29.09.2026 -
Lucas Souto Defensa y Justicia Actif 132 / 113 40% 1 28.09.2026 -
Callum Robinson Poltava Actif 95 / 126 40% 1 27.09.2026 -
Brenner Vasco da Gama Actif 127 / 139 40% 1 26.09.2026 -
Brian White Vancouver Whitecaps Actif 120 / 135 40% 1 24.09.2026 -
Miguel Reisinho Feirense Actif 127 / 124 40% 1 24.09.2026 -
Mathias De Amorim Famalicao Actif 135 / 110 40% 2 22.09.2026 -
Duk Atlas Actif 102 / 126 40% 1 22.09.2026 -
Rodrigo Martins Lusitânia Lourosa Actif 108 / 121 40% 1 22.09.2026 -
Rony Lopes Tondela Actif 132 / 95 40% 1 22.09.2026 -
Dawda Camara Alverca Actif 125 / 142 40% 2 19.09.2026 -
Jhonatan Candia Barracas Central Actif 118 / 128 40% 2 19.09.2026 -
Alexander Aravena Portland Timbers Actif 122 / 129 40% 1 19.09.2026 -
Ryan Gauld Vancouver Whitecaps Actif 131 / 140 40% 1 19.09.2026 -
Negueba Mirassol Actif 129 / 109 40% 1 14.09.2026 -
Andre Green AVS Actif 111 / 106 40% 1 11.09.2026 -
Francisco Domingues Moreirense Actif 101 / 113 40% 1 07.09.2026 -
Leandro Lozano Boca Juniors Actif 123 / 112 40% 1 07.09.2026 -
Julian Herrera Cortulua Actif 128 / 122 40% 1 07.09.2026 -
Michael Vadulli Audax Italiano Actif 123 / 93 40% 1 06.09.2026 -
Zian Flemming Ipswich Town Actif 123 / 117 40% 1 03.09.2026 -
Timo Werner San Jose Earthquakes Actif 118 / 124 40% 1 02.09.2026 -
Mika Lusitânia Lourosa Actif 96 / 92 40% 1 02.09.2026 -
Dylan Nandín Arouca Actif 106 / 122 40% 1 30.08.2026 -
Ole Pohlmann Rio Ave Actif 140 / 134 40% 1 30.08.2026 -
Dániel Gazdag New England Revolution Actif 132 / 140 40% 1 28.08.2026 -
Leonardo Campana New England Revolution Actif 112 / 135 40% 1 25.08.2026 -
Luis Amarilla Cerro Porteno Actif 128 / 107 40% 1 24.08.2026 -
André Lacximicant Estoril Praia Actif 89 / 100 40% 1 24.08.2026 -
Pedro Santos Arouca Actif 104 / 117 40% 1 22.08.2026 -
Joe Gelhardt Hull City Actif 117 / 107 40% 1 19.08.2026 -
Jair Silva Leiria Actif 104 / 86 40% 1 18.08.2026 -
Yuri Tanque Criciuma Actif 127 / 123 40% 1 18.08.2026 -
Espen van Ee Arouca Actif 122 / 140 40% 1 18.08.2026 -
Ianis Stoica Estrela da Amadora Actif 122 / 104 40% 1 18.08.2026 -
Geovanni Banguera Deportivo Pasto Actif 131 / 131 40% 1 17.08.2026 -
Pedro Maranhão Tondela Actif 120 / 104 40% 1 17.08.2026 -
Callum O'Hare Sheffield United Actif 149 / 111 40% 1 13.08.2026 -
Nabil Touaizi Alverca Actif 124 / 122 40% 1 09.08.2026 -
Patrick Sequeira Casa Pia Actif 121 / 111 40% 1 07.08.2026 -
Marios Vrousai Rio Ave Actif 138 / 107 40% 1 05.08.2026 -
Leo Román Deportivo La Coruña Actif 143 / 160 40% 1 03.08.2026 -